Regional Weather Roundup
Issued by NWS

Home | Current Version | Previous Version | Text Only | Print | Product List | Glossary Off
Versions: 1 2 3 4 5 6 7 8 9 10 11 12 13 14 15 16 17 18 19 20 21 22 23 24 25 26 27 28 29 30 31 32 33 34 35 36 37 38 39 40 41 42 43 44 45 46 47 48 49 50

000
ASUS43 KOAX 011102
RWRNE

WEATHER ROUNDUP FOR NEBRASKA
NATIONAL WEATHER SERVICE OMAHA NE
600 AM CDT WED OCT 01 2014

NOTES: SATELLITE DATA IS BEING USED TO AUGMENT CLOUD COVER ABOVE
       12000 FEET.
       "FAIR" INDICATES FEW OR NO CLOUDS BELOW 12,000 FEET WITH NO
       SIGNIFICANT WEATHER AND/OR OBSTRUCTIONS TO VISIBILITY.

  * THESE STATIONS DO NOT REPORT WEATHER SUCH AS RAIN...SNOW OR FOG.

NEZ001>004-019>022-054>056-011200-
NEBRASKA PANHANDLE

CITY           SKY/WX    TMP DP  RH WIND       PRES   REMARKS
SCOTTSBLUFF    CLEAR     45  43  93 W6        29.84R
ALLIANCE       PTCLDY    43  42  97 W7        29.81R
CHADRON        CLEAR     48  44  86 SW9       29.80R
KIMBALL        CLEAR     45  40  83 W9        29.85R
SIDNEY         CLEAR     47  41  80 W12       29.85R
$$

NEZ057>060-069>072-079>082-011200-
SOUTHWEST NEBRASKA

CITY           SKY/WX    TMP DP  RH WIND       PRES   REMARKS
NORTH PLATTE   MOCLDY    47  45  93 CALM      29.77R
IMPERIAL       CLEAR     52  45  77 NW8       29.80R
LEXINGTON      PTCLDY    55  54  97 CALM      29.75F FOG
MCCOOK         PTCLDY    50  49  96 W7        29.76S
OGALLALA       PTCLDY    47  46  93 CALM      29.80R
$$

NEZ005>010-023>029-035>040-094-011200-
NORTH CENTRAL NEBRASKA

CITY           SKY/WX    TMP DP  RH WIND       PRES   REMARKS
VALENTINE      MOCLDY    49  46  90 W3        29.75R
AINSWORTH      MOCLDY    52  46  81 NE6       29.74R
BROKEN BOW     MOCLDY    57  52  83 E3        29.74S
O`NEILL        CLOUDY    62  57  83 S6        29.71F
ORD            MOCLDY    57  56  96 E3        29.72F
THEDFORD       MOCLDY    56  47  71 W3        29.77R
$$

NEZ041-046>049-061>064-073>077-083>087-011200-
SOUTH CENTRAL NEBRASKA

CITY           SKY/WX    TMP DP  RH WIND       PRES   REMARKS
GRAND ISLAND   CLOUDY    62  61  96 NW8       29.75R FOG
AURORA         FOG       60  60 100 NW5       29.72R VSB 1/2
HASTINGS       FOG       62  60  93 W7        29.73R VSB 1/4
HEBRON         CLOUDY    64  61  93 CALM      29.69S FOG
HOLDREGE       CLOUDY    60  59  97 N7        29.76R FOG
KEARNEY *      MOCLDY    61  57  88 W5        29.75S
YORK           PTCLDY    55  55 100 CALM      29.71S FOG
$$

NEZ011>018-030>034-042>045-011200-
NORTHEAST NEBRASKA

CITY           SKY/WX    TMP DP  RH WIND       PRES   REMARKS
NORFOLK        PTCLDY    59  58  96 W3        29.73R
ALBION         DRIZZLE   62  60  93 CALM      29.75R
BLAIR          RAIN      62  60  93 S5        29.72R
COLUMBUS *     CLOUDY    55  54  94 CALM      29.73R
FREMONT        CLOUDY    63  61  94 SE6       29.72R
TEKAMAH        CLOUDY    61  59  93 CALM      29.71F
WAYNE          MOCLDY    58  57  97 SE3       29.73S FOG
$$

NEZ050>053-065>068-078-088>093-011200-
SOUTHEAST NEBRASKA

CITY           SKY/WX    TMP DP  RH WIND       PRES   REMARKS
LINCOLN        LGT RAIN  62  60  93 CALM      29.72R
OMAHA EPPLEY   RAIN      62  60  93 SE9       29.72F FOG
BEATRICE       CLOUDY    65  64  96 E3        29.70R
FALLS CITY     CLOUDY    65  63  93 SE8       29.71S
NEBRASKA CITY  CLOUDY    61  61 100 SE6       29.71S
PLATTSMOUTH    LGT RAIN  61  59  92 CALM      29.73R
$$

NEZ044-045-051>053-067-011200-
OMAHA AREA

CITY           SKY/WX    TMP DP  RH WIND       PRES   REMARKS
OMAHA EPPLEY   RAIN      62  60  93 SE9       29.72F FOG
BLAIR          RAIN      62  60  93 S5        29.72R
FREMONT        CLOUDY    63  61  94 SE6       29.72R
MILLARD        HVY RAIN  62  60  93 S5        29.72S
OFFUTT AFB     HVY RAIN  62  62 100 VRB1      29.73F
PLATTSMOUTH    LGT RAIN  61  59  92 CALM      29.73R
WAHOO          CLOUDY    60  57  89 SE3       29.71F
$$


USA.gov is the U.S. government's official web portal to all federal, state and local government web resources and services.